Погода в Замзоре

Россия / Иркутская область     55°22′07″N   98°39′06″E
темп.,
°C
ветер,
м/с
пор.,
м/с
влажн.,
%
обл.,
%
осадки,
мм/ч
давл.,
гПа
погр.,
м
20 апреля, вт
вт2023:00−6з92073100 0.1 10121355
02:00−7зсз61677100 0.1 10161182
05:00−8зсз6167520 0.0 10171227
08:00−8зсз514665 0.0 10191137
11:00−5зсз61150100 0.0 10191637
14:00−2зсз61040100 0.0 10181998
17:00−2зсз5838100 0.0 10182114
20:00−4зсз484835 0.0 10201402
21 апреля, ср
ср2123:00−6з386452 0.0 1022538
02:00−7з512645 0.0 10221153
05:00−8з511696 0.0 10231008
08:00−7з511605 0.0 10251150
11:00−3зсз6944100 0.0 10251876
14:00−1зсз5640100 0.0 10242065
17:000сз4538100 0.0 10241934
20:00−3ссз235642 0.0 102668
22 апреля, чт
чт2223:00−6юз008337 0.0 102910
02:00−7ю11895 0.0 103010
05:00−8юв119378 0.0 103110
08:00−5в137191 0.0 1032174
11:000в2348100 0.0 10331234
14:00+2всв3339100 0.0 10332023
17:00+3всв3337100 0.0 10341839
20:000св225713 0.0 103721
23 апреля, пт
пт2323:00−3вюв117020 0.0 104110
02:00−4ююв11705 0.0 104210
05:00−4вюв00720 0.0 104410
08:00−2всв11570 0.0 1045183
11:00+3в34390 0.0 10441220
14:00+5в45345 0.0 10421823
17:00+6в4636100 0.0 10411853
20:00+2всв3861100 0.0 1042219
24 апреля, сб
сб2423:00−1в3127291 0.0 1042327
02:00−3в2575100 0.0 1041105
05:00−2в21071100 0.0 1038321
08:00+1в41361100 0.0 1037697
11:00+4вюв51347100 0.0 10331283
14:00+6вюв51147100 0.0 10311638
17:00+7в4947100 0.1 10291849
20:00+3св267284 0.1 1028119